| time (UTC) | temp F | wind direction | speed MPH | gust MPH | rain 1hr in | rain 24hr in | rain mn in | humidity % | barometer mb |
| 20260503211021 | 55 | 338 | 17.0 | 23.0 | 0.00 | 0.00 | 0.00 | 49 | |
| 20260503210603 | 55 | 315 | 17.0 | 25.0 | 0.00 | 0.00 | 0.00 | 50 | |
| 20260503210021 | 54 | 315 | 18.0 | 25.0 | 0.00 | 0.00 | 0.00 | 51 | |
| 20260503205522 | 53 | 338 | 19.0 | 27.0 | 0.00 | 0.00 | 0.00 | 51 | |
| 20260503204521 | 52 | 338 | 17.0 | 21.0 | 0.00 | 0.00 | 0.00 | 55 | |
| 20260503204025 | 53 | 338 | 19.0 | 26.0 | 0.00 | 0.00 | 0.00 | 54 | |
| 20260503203521 | 53 | 338 | 21.0 | 27.0 | 0.00 | 0.00 | 0.00 | 53 | |
| 20260503203022 | 53 | 338 | 19.0 | 25.0 | 0.00 | 0.00 | 0.00 | 57 | |
| 20260503202521 | 53 | 338 | 18.0 | 26.0 | 0.00 | 0.00 | 0.00 | 55 | |
| 20260503202021 | 54 | 338 | 18.0 | 23.0 | 0.00 | 0.00 | 0.00 | 54 | |
| 20260503201521 | 54 | 338 | 18.0 | 25.0 | 0.00 | 0.00 | 0.00 | 55 | |
| 20260503201021 | 54 | 338 | 18.0 | 23.0 | 0.00 | 0.00 | 0.00 | 56 | |
| 20260503200523 | 54 | 338 | 20.0 | 25.0 | 0.00 | 0.00 | 0.00 | 54 | |
| 20260503200044 | 54 | 338 | 17.0 | 24.0 | 0.00 | 0.00 | 0.00 | 54 | |
| 20260503195524 | 53 | 338 | 16.0 | 21.0 | 0.00 | 0.00 | 0.00 | 58 | |
| 20260503195021 | 53 | 338 | 18.0 | 27.0 | 0.00 | 0.00 | 0.00 | 59 | |
| 20260503194542 | 53 | 338 | 18.0 | 22.0 | 0.00 | 0.00 | 0.00 | 61 | |
| 20260503194021 | 53 | 338 | 20.0 | 25.0 | 0.00 | 0.00 | 0.00 | 61 | |
| 20260503193526 | 52 | 338 | 20.0 | 26.0 | 0.00 | 0.00 | 0.00 | 63 | |
| 20260503193021 | 52 | 338 | 18.0 | 23.0 | 0.00 | 0.00 | 0.00 | 65 | |
| 20260503192521 | 52 | 338 | 18.0 | 25.0 | 0.00 | 0.00 | 0.00 | 66 | |
| 20260503192021 | 51 | 338 | 12.0 | 17.0 | 0.00 | 0.00 | 0.00 | 71 | |
| 20260503191521 | 50 | 338 | 8.0 | 12.0 | 0.00 | 0.00 | 0.00 | 74 | |
| 20260503191021 | 49 | 338 | 10.0 | 13.0 | 0.00 | 0.00 | 0.00 | 74 | |
| 20260503190543 | 49 | 338 | 10.0 | 12.0 | 0.00 | 0.00 | 0.00 | 74 | |
| 20260503190021 | 49 | 338 | 11.0 | 14.0 | 0.00 | 0.00 | 0.00 | 75 | |
| 20260503185521 | 50 | 338 | 10.0 | 14.0 | 0.00 | 0.00 | 0.00 | 75 | |
| 20260503185021 | 50 | 338 | 10.0 | 13.0 | 0.00 | 0.00 | 0.00 | 75 | |
| 20260503184548 | 50 | 338 | 10.0 | 13.0 | 0.00 | 0.00 | 0.00 | 76 | |
| 20260503184021 | 50 | 338 | 11.0 | 14.0 | 0.00 | 0.00 | 0.00 | 75 | |
| 20260503183523 | 49 | 338 | 12.0 | 15.0 | 0.00 | 0.00 | 0.00 | 75 | |
| 20260503183022 | 49 | 338 | 13.0 | 16.0 | 0.00 | 0.00 | 0.00 | 74 | |
| 20260503182521 | 49 | 338 | 13.0 | 18.0 | 0.00 | 0.00 | 0.00 | 74 | |
| 20260503182021 | 49 | 338 | 14.0 | 18.0 | 0.00 | 0.00 | 0.00 | 73 | |
| 20260503181520 | 49 | 338 | 13.0 | 19.0 | 0.00 | 0.00 | 0.00 | 73 | |
| 20260503181021 | 48 | 338 | 14.0 | 19.0 | 0.00 | 0.00 | 0.00 | 73 | |
| 20260503180524 | 48 | 338 | 16.0 | 22.0 | 0.00 | 0.00 | 0.00 | 72 | |
| 20260503180024 | 48 | 338 | 14.0 | 19.0 | 0.00 | 0.00 | 0.00 | 73 | |
| 20260503175521 | 48 | 338 | 14.0 | 20.0 | 0.00 | 0.00 | 0.00 | 73 | |
| 20260503175029 | 48 | 338 | 18.0 | 23.0 | 0.00 | 0.00 | 0.00 | 74 | |
| 20260503174541 | 48 | 338 | 19.0 | 24.0 | 0.00 | 0.00 | 0.00 | 74 | |
| 20260503174103 | 48 | 338 | 17.0 | 26.0 | 0.00 | 0.00 | 0.00 | 75 | |
| 20260503173542 | 48 | 338 | 19.0 | 25.0 | 0.00 | 0.00 | 0.00 | 75 | |
| 20260503173021 | 48 | 338 | 20.0 | 26.0 | 0.00 | 0.00 | 0.00 | 76 | |
| 20260503172521 | 48 | 338 | 21.0 | 27.0 | 0.00 | 0.00 | 0.00 | 77 | |
| 20260503172021 | 48 | 338 | 21.0 | 27.0 | 0.00 | 0.00 | 0.00 | 78 | |
| 20260503171521 | 48 | 338 | 22.0 | 27.0 | 0.00 | 0.00 | 0.00 | 79 | |
| 20260503171021 | 48 | 338 | 20.0 | 26.0 | 0.00 | 0.00 | 0.00 | 81 | |
| 20260503170522 | 48 | 338 | 19.0 | 24.0 | 0.00 | 0.00 | 0.00 | 82 | |
| 20260503150524 | 46 | 338 | 21.0 | 29.0 | 0.00 | 0.00 | 0.00 | 89 | |
| 20260503131022 | 47 | 23 | 19.0 | 23.0 | 0.00 | 0.00 | 0.00 | 89 | |
| 20260503130520 | 0 | 23 | 18.0 | 23.0 | 0.00 | 0.00 | 0.00 | ||
| 20260503110520 | 0 | 338 | 14.0 | 18.0 | 0.00 | 0.00 | 0.00 | ||
| 20260503081543 | 0 | 338 | 11.0 | 15.0 | 0.00 | 0.00 | 0.00 | ||
| 20260503081022 | 0 | 338 | 12.0 | 15.0 | 0.00 | 0.00 | 0.00 | ||
| 20260503080526 | 0 | 338 | 12.0 | 15.0 | 0.00 | 0.00 | 0.00 | ||
| 20260503072520 | 0 | 338 | 11.0 | 14.0 | 0.00 | 0.00 | 0.00 | ||
| 20260503072021 | 0 | 338 | 11.0 | 14.0 | 0.00 | 0.00 | 0.00 | ||
| 20260503071521 | 0 | 338 | 9.0 | 13.0 | 0.00 | 0.00 | 0.00 | ||
| 20260503071022 | 0 | 338 | 10.0 | 13.0 | 0.00 | 0.00 | 0.00 | ||
| 20260503070521 | 0 | 338 | 10.0 | 13.0 | 0.00 | 0.00 | 0.00 | ||
| 20260503055021 | 0 | 338 | 10.0 | 12.0 | 0.00 | 0.00 | 0.00 | ||
| 20260503054541 | 0 | 338 | 9.0 | 13.0 | 0.00 | 0.00 | 0.00 | ||
| 20260503054042 | 0 | 338 | 11.0 | 14.0 | 0.00 | 0.00 | 0.00 | ||
| 20260503053521 | 0 | 338 | 11.0 | 14.0 | 0.00 | 0.00 | 0.00 | ||
| 20260503053021 | 0 | 338 | 11.0 | 14.0 | 0.00 | 0.00 | 0.00 | ||
| 20260503052522 | 0 | 338 | 12.0 | 14.0 | 0.00 | 0.00 | 0.00 | ||
| 20260503052023 | 0 | 338 | 11.0 | 14.0 | 0.00 | 0.00 | 0.00 | ||
| 20260503051521 | 0 | 338 | 11.0 | 14.0 | 0.00 | 0.00 | 0.00 | ||
| 20260503051059 | 0 | 338 | 10.0 | 13.0 | 0.00 | 0.00 | 0.00 | ||
| 20260503050522 | 0 | 338 | 10.0 | 12.0 | 0.00 | 0.00 | 0.00 | ||
| 20260503050021 | 0 | 338 | 9.0 | 12.0 | 0.00 | 0.00 | 0.00 | ||
| 20260503045522 | 0 | 338 | 9.0 | 11.0 | 0.00 | 0.00 | 0.00 | ||
| 20260503045022 | 0 | 338 | 8.0 | 10.0 | 0.00 | 0.00 | 0.00 | ||
| 20260503044521 | 0 | 338 | 8.0 | 10.0 | 0.00 | 0.00 | 0.00 | ||
| 20260503044021 | 0 | 338 | 7.0 | 10.0 | 0.00 | 0.00 | 0.00 | ||
| 20260503043542 | 0 | 338 | 6.0 | 9.0 | 0.00 | 0.00 | 0.00 | ||
| 20260503043021 | 0 | 338 | 7.0 | 9.0 | 0.00 | 0.00 | 0.00 | ||
| 20260503042521 | 0 | 338 | 8.0 | 10.0 | 0.00 | 0.00 | 0.00 | ||
| 20260503042021 | 0 | 338 | 8.0 | 10.0 | 0.00 | 0.00 | 0.00 | ||
| 20260503041521 | 0 | 338 | 8.0 | 10.0 | 0.00 | 0.00 | 0.00 | ||
| 20260503041021 | 0 | 338 | 8.0 | 10.0 | 0.00 | 0.00 | 0.00 | ||
| 20260503040537 | 0 | 338 | 8.0 | 11.0 | 0.00 | 0.00 | 0.00 | ||
| 20260503040044 | 0 | 338 | 7.0 | 9.0 | 0.00 | 0.00 | 0.00 | ||
| 20260503035520 | 0 | 338 | 7.0 | 10.0 | 0.00 | 0.00 | 0.00 | ||
| 20260503035052 | 0 | 338 | 8.0 | 10.0 | 0.00 | 0.00 | 0.00 | ||
| 20260503034522 | 0 | 338 | 8.0 | 10.0 | 0.00 | 0.00 | 0.00 | ||
| 20260503034021 | 0 | 338 | 8.0 | 10.0 | 0.00 | 0.00 | 0.00 | ||
| 20260503033523 | 0 | 338 | 8.0 | 10.0 | 0.00 | 0.00 | 0.00 | ||
| 20260503033023 | 0 | 338 | 9.0 | 11.0 | 0.00 | 0.00 | 0.00 | ||
| 20260503032522 | 0 | 338 | 8.0 | 10.0 | 0.00 | 0.00 | 0.00 | ||
| 20260503032042 | 0 | 338 | 8.0 | 10.0 | 0.00 | 0.00 | 0.00 | ||
| 20260503031526 | 0 | 338 | 5.0 | 8.0 | 0.00 | 0.00 | 0.00 | ||
| 20260503030022 | 0 | 338 | 3.0 | 4.0 | 0.00 | 0.00 | 0.00 | ||
| 20260503025522 | 0 | 338 | 3.0 | 3.0 | 0.00 | 0.00 | 0.00 | ||
| 20260503025022 | 0 | 23 | 3.0 | 3.0 | 0.00 | 0.00 | 0.00 | ||
| 20260503024522 | 0 | 23 | 2.0 | 3.0 | 0.00 | 0.00 | 0.00 | ||
| 20260503024022 | 0 | 338 | 2.0 | 3.0 | 0.00 | 0.00 | 0.00 | ||
| 20260503023521 | 0 | 338 | 2.0 | 2.0 | 0.00 | 0.00 | 0.00 | ||
| 20260503023140 | 0 | 0.0 | 1.0 | 0.00 | 0.00 | 0.00 | |||
| 20260503022522 | 0 | 315 | 1.0 | 2.0 | 0.00 | 0.00 | 0.00 | ||
| 20260503020031 | 0 | 338 | 3.0 | 6.0 | 0.00 | 0.00 | 0.00 | ||
| 20260503015521 | 0 | 270 | 4.0 | 6.0 | 0.00 | 0.00 | 0.00 | ||
| 20260503015024 | 0 | 248 | 4.0 | 7.0 | 0.00 | 0.00 | 0.00 | ||
| 20260503014600 | 0 | 248 | 4.0 | 6.0 | 0.00 | 0.00 | 0.00 | ||
| 20260503014021 | 0 | 225 | 5.0 | 9.0 | 0.00 | 0.00 | 0.00 | ||
| 20260503013521 | 0 | 225 | 6.0 | 8.0 | 0.00 | 0.00 | 0.00 | ||
| 20260503013022 | 0 | 225 | 5.0 | 7.0 | 0.00 | 0.00 | 0.00 | ||
| 20260503012521 | 0 | 248 | 5.0 | 8.0 | 0.00 | 0.00 | 0.00 | ||
| 20260503012021 | 0 | 248 | 4.0 | 7.0 | 0.00 | 0.00 | 0.00 | ||
| 20260503011522 | 0 | 270 | 4.0 | 6.0 | 0.00 | 0.00 | 0.00 | ||
| 20260503010521 | 0 | 315 | 4.0 | 9.0 | 0.00 | 0.00 | 0.00 | ||
| 20260503010022 | 0 | 315 | 3.0 | 6.0 | 0.00 | 0.00 | 0.00 | ||
| 20260503005543 | 0 | 203 | 5.0 | 9.0 | 0.00 | 0.00 | 0.00 | ||
| 20260503005022 | 0 | 203 | 9.0 | 11.0 | 0.00 | 0.00 | 0.00 | ||
| 20260503004522 | 0 | 180 | 10.0 | 11.0 | 0.00 | 0.00 | 0.00 | ||
| 20260503004044 | 0 | 180 | 9.0 | 11.0 | 0.00 | 0.00 | 0.00 | ||
| 20260503003521 | 0 | 180 | 10.0 | 12.0 | 0.00 | 0.00 | 0.00 | ||
| 20260503003022 | 0 | 180 | 10.0 | 12.0 | 0.00 | 0.00 | 0.00 | ||
| 20260503002522 | 0 | 180 | 10.0 | 11.0 | 0.00 | 0.00 | 0.00 | ||
| 20260503002021 | 0 | 180 | 9.0 | 11.0 | 0.00 | 0.00 | 0.00 | ||
| 20260503001521 | 0 | 180 | 10.0 | 12.0 | 0.00 | 0.00 | 0.00 | ||
| 20260503001022 | 0 | 180 | 10.0 | 12.0 | 0.00 | 0.00 | 0.00 | ||
| 20260503000536 | 0 | 180 | 10.0 | 12.0 | 0.00 | 0.00 | 0.00 | ||
| 20260503000044 | 0 | 180 | 10.0 | 12.0 | 0.00 | 0.00 | 0.00 | ||
| 20260502235523 | 0 | 203 | 11.0 | 13.0 | 0.00 | 0.00 | 0.00 | ||
| 20260502235021 | 0 | 203 | 10.0 | 12.0 | 0.00 | 0.00 | 0.00 | ||
| 20260502234522 | 0 | 203 | 10.0 | 11.0 | 0.00 | 0.00 | 0.00 | ||
| 20260502234022 | 0 | 203 | 10.0 | 12.0 | 0.00 | 0.00 | 0.00 | ||
| 20260502233525 | 50 | 203 | 11.0 | 13.0 | 0.00 | 0.00 | 0.00 | 90 | |
| 20260502233020 | 50 | 203 | 11.0 | 13.0 | 0.00 | 0.00 | 0.00 | 90 | |
| 20260502232023 | 50 | 203 | 11.0 | 14.0 | 0.00 | 0.00 | 0.00 | 90 | |
| 20260502231521 | 50 | 203 | 11.0 | 12.0 | 0.00 | 0.00 | 0.00 | 89 | |
| 20260502231022 | 50 | 203 | 11.0 | 13.0 | 0.00 | 0.00 | 0.00 | 89 | |
| 20260502230521 | 50 | 203 | 12.0 | 14.0 | 0.00 | 0.00 | 0.00 | 89 | |
| 20260502230042 | 50 | 203 | 13.0 | 15.0 | 0.00 | 0.00 | 0.00 | 89 | |
| 20260502225521 | 50 | 203 | 14.0 | 16.0 | 0.00 | 0.00 | 0.00 | 89 | |
| 20260502225024 | 50 | 180 | 12.0 | 14.0 | 0.00 | 0.00 | 0.00 | 89 | |
| 20260502224521 | 50 | 203 | 11.0 | 13.0 | 0.00 | 0.00 | 0.00 | 88 | |
| 20260502224042 | 50 | 203 | 12.0 | 15.0 | 0.00 | 0.00 | 0.00 | 88 | |
| 20260502223521 | 50 | 203 | 12.0 | 14.0 | 0.00 | 0.00 | 0.00 | 88 | |
| 20260502223022 | 50 | 203 | 11.0 | 13.0 | 0.00 | 0.00 | 0.00 | 88 | |
| 20260502222603 | 50 | 203 | 11.0 | 13.0 | 0.00 | 0.00 | 0.00 | 87 | |
| 20260502222021 | 51 | 203 | 12.0 | 14.0 | 0.00 | 0.00 | 0.00 | 87 | |
| 20260502221521 | 51 | 203 | 12.0 | 15.0 | 0.00 | 0.00 | 0.00 | 87 | |
| 20260502221021 | 51 | 203 | 11.0 | 13.0 | 0.00 | 0.00 | 0.00 | 86 | |
| 20260502220539 | 50 | 203 | 10.0 | 12.0 | 0.00 | 0.00 | 0.00 | 86 | |
| 20260502220024 | 51 | 180 | 10.0 | 11.0 | 0.00 | 0.00 | 0.00 | 86 | |
| 20260502215521 | 51 | 203 | 10.0 | 11.0 | 0.00 | 0.00 | 0.00 | 85 | |
| 20260502215025 | 51 | 203 | 10.0 | 11.0 | 0.00 | 0.00 | 0.00 | 85 | |
| 20260502214521 | 51 | 203 | 9.0 | 11.0 | 0.00 | 0.00 | 0.00 | 85 | |
| 20260502213021 | 51 | 203 | 9.0 | 11.0 | 0.00 | 0.00 | 0.00 | 83 | |
| 20260502212521 | 51 | 225 | 7.0 | 10.0 | 0.00 | 0.00 | 0.00 | 83 | |
| 20260502212021 | 51 | 225 | 7.0 | 10.0 | 0.00 | 0.00 | 0.00 | 83 | |
| 20260502211521 | 52 | 225 | 7.0 | 9.0 | 0.00 | 0.00 | 0.00 | 83 |